Location: ????????
(60.5616°N, 46.8254°E)
Time: 09:57:01
(UTC+00:00)

Cosmos 1697 Rocket - Pass Details

Date: 18 February 2020
Orbit: 831 x 845 km, 71.0° (Epoch: 09 April)

Event Time Altitude Azimuth Distance (km) Brightness Sun altitude
Exits shadow 22:50:27 30° 15° (NNE) 1,475 4.3 -37.4°
Drops below altitude 10° 22:53:49 10° 43° (NE) 2,464 5.8 -37.2°
Sets 22:56:27 0° 52° (NE) 3,402 6.7 -37.0°
